DN9EM-2 Weather Reports


time (UTC)temp
C
wind
direction
speed
KPH
gust
KPH
rain 1hr
cm
rain 24hr
cm
rain mn
cm
humidity
%
barometer
mb
20260505124054 15 293 0.0 3.2 0.00 0.00 0.00 66 1012.7
20260505122049 15 0.0 3.2 0.00 0.00 0.00 65 1012.7
20260505121046 15 338 0.0 3.2 0.00 0.00 0.00 66 1012.8
20260505120043 14 346 1.6 3.2 0.00 0.00 0.00 65 1012.9
20260505115041 14 293 0.0 6.4 0.00 0.00 0.00 66 1012.8
20260505114038 15 0.0 3.2 0.00 0.00 0.00 65 1012.8
20260505113035 14 33 1.6 6.4 0.00 0.00 0.00 66 1012.8
20260505112033 13 315 0.0 3.2 0.00 0.00 0.00 66 1012.8
20260505111030 13 323 0.0 6.4 0.00 0.00 0.00 67 1012.9
20260505102037 13 186 0.0 6.4 0.00 0.00 0.00 66 1013.3
20260505101114 13 338 0.0 3.2 0.00 0.00 0.00 68 1013.3
20260505100112 13 212 1.6 3.2 0.00 0.00 0.00 68 1013.4
20260505095109 12 183 1.6 11.3 0.00 0.00 0.00 70 1013.4
20260505094106 13 180 0.0 6.4 0.00 0.00 0.00 70 1013.5
20260505093104 12 340 0.0 6.4 0.00 0.00 0.00 70 1013.5
20260505092101 12 210 1.6 6.4 0.00 0.00 0.00 70 1013.5
20260505091058 12 347 1.6 6.4 0.00 0.00 0.00 70 1013.6
20260505090055 12 316 0.0 6.4 0.00 0.00 0.00 73 1013.6
20260505085053 12 229 1.6 3.2 0.00 0.00 0.00 74 1013.6
20260505084050 11 330 0.0 3.2 0.00 0.00 0.00 74 1013.5
20260505083048 11 192 1.6 3.2 0.00 0.00 0.00 76 1013.5
20260505082045 11 189 1.6 3.2 0.00 0.00 0.00 77 1013.4
20260505081042 10 336 1.6 6.4 0.00 0.00 0.00 78 1013.3
20260505080040 10 190 1.6 6.4 0.00 0.00 0.00 79 1013.3
20260505075037 10 158 0.0 3.2 0.00 0.00 0.00 79 1013.3
20260505074035 10 309 1.6 3.2 0.00 0.00 0.00 80 1013.3
20260505073032 10 209 0.0 3.2 0.00 0.00 0.00 80 1013.3
20260505072029 9 210 0.0 6.4 0.00 0.00 0.00 81 1013.2
20260505071026 9 32 1.6 6.4 0.00 0.00 0.00 81 1013.2
20260505070024 9 120 0.0 3.2 0.00 0.00 0.00 81 1013.2
20260505065021 9 252 1.6 6.4 0.00 0.00 0.00 81 1013.1
20260505064019 9 190 0.0 6.4 0.00 0.00 0.00 81 1013.0
20260505063016 8 338 0.0 6.4 0.00 0.00 0.00 83 1013.1
20260505062113 8 265 1.6 6.4 0.00 0.00 0.00 84 1013.1
20260505061111 8 225 1.6 6.4 0.00 0.00 0.00 84 1013.1
20260505060108 7 180 0.0 3.2 0.00 0.00 0.00 84 1013.0
20260505055106 7 135 1.6 3.2 0.00 0.00 0.00 84 1013.0
20260505054103 7 0.0 3.2 0.00 0.00 0.00 84 1012.9
20260505053100 7 203 0.0 6.4 0.00 0.00 0.00 85 1012.8
20260505052058 7 254 0.0 3.2 0.00 0.00 0.00 85 1012.8
20260505051055 7 286 1.6 6.4 0.00 0.00 0.00 85 1012.9
20260505041039 7 180 0.0 3.2 0.00 0.00 0.00 86 1012.8
20260505040036 7 202 1.6 6.4 0.00 0.00 0.00 85 1012.8
20260505035033 7 187 1.6 6.4 0.00 0.00 0.00 85 1012.7
20260505034030 7 197 1.6 3.2 0.00 0.00 0.00 85 1012.7
20260505033028 7 195 0.0 3.2 0.00 0.00 0.00 84 1012.9
20260505032025 7 198 1.6 6.4 0.00 0.00 0.00 84 1012.8
20260505031023 7 197 1.6 6.4 0.00 0.00 0.00 83 1013.0
20260505030020 7 183 1.6 3.2 0.00 0.00 0.00 84 1012.9
20260505025017 7 220 1.6 6.4 0.00 0.00 0.00 83 1013.0
20260505024015 7 171 1.6 9.7 0.00 0.00 0.00 83 1013.0
20260505023112 7 181 3.2 6.4 0.00 0.00 0.00 84 1013.2
20260505022110 7 187 1.6 6.4 0.00 0.00 0.00 84 1013.2
20260505021107 7 165 0.0 3.2 0.00 0.00 0.00 84 1013.1
20260505020105 7 203 0.0 3.2 0.00 0.00 0.00 83 1013.2
20260505015102 8 180 0.0 3.2 0.00 0.00 0.00 83 1013.4
20260505014059 8 0.0 3.2 0.00 0.00 0.00 83 1013.3
20260505013057 8 0.0 3.2 0.00 0.00 0.00 82 1013.4
20260505012054 8 135 0.0 3.2 0.00 0.00 0.00 82 1013.3
20260505011052 8 0.0 0.0 0.00 0.00 0.00 83 1013.4
20260505010049 8 0.0 0.0 0.00 0.00 0.00 83 1013.5
20260505005046 8 0.0 3.2 0.00 0.00 0.00 82 1013.6
20260505004043 8 0.0 0.0 0.00 0.00 0.00 82 1013.8
20260505003041 8 0.0 0.0 0.00 0.00 0.00 83 1013.8
20260505002038 8 0.0 0.0 0.00 0.00 0.00 83 1013.7
20260505001036 8 0.0 0.0 0.00 0.00 0.00 85 1013.8
20260505000033 8 0.0 0.0 0.00 0.00 0.00 85 1013.7
20260504235031 7 171 1.6 3.2 0.00 0.00 0.00 86 1013.6
20260504234028 7 0.0 0.0 0.00 0.00 0.00 87 1013.8
20260504233025 7 0.0 0.0 0.00 0.00 0.00 86 1013.8
20260504232023 7 0.0 0.0 0.00 0.00 0.00 86 1013.9
20260504231020 7 0.0 3.2 0.00 0.00 0.00 87 1014.0
20260504230017 7 195 0.0 3.2 0.00 0.00 0.00 87 1014.0
20260504225015 7 180 0.0 3.2 0.00 0.00 0.00 87 1013.8
20260504224112 7 188 1.6 3.2 0.00 0.00 0.00 86 1014.1
20260504223110 8 0.0 3.2 0.00 0.00 0.00 86 1014.1
20260504222107 8 182 1.6 3.2 0.00 0.00 0.00 85 1014.2
20260504221104 8 183 1.6 6.4 0.00 0.00 0.00 86 1014.1
20260504215059 8 187 3.2 6.4 0.00 0.00 0.00 84 1014.3
20260504214056 8 186 3.2 6.4 0.00 0.00 0.00 85 1014.3
20260504213054 8 187 1.6 3.2 0.00 0.00 0.00 86 1014.4
20260504212051 9 180 1.6 6.4 0.00 0.00 0.00 86 1014.4
20260504211048 9 199 1.6 3.2 0.00 0.00 0.00 86 1014.4
20260504210046 10 0.0 3.2 0.00 0.00 0.00 86 1014.4
20260504205043 10 0.0 3.2 0.00 0.00 0.00 86 1014.4
20260504204041 10 0.0 0.0 0.00 0.00 0.00 85 1014.5
20260504203038 10 0.0 0.0 0.00 0.00 0.00 85 1014.5
20260504202035 10 0.0 0.0 0.00 0.00 0.00 85 1014.4
20260504201033 11 0.0 0.0 0.00 0.00 0.00 84 1014.3
20260504200030 11 0.0 0.0 0.00 0.00 0.00 84 1014.2
20260504195028 11 0.0 0.0 0.00 0.00 0.00 83 1014.4
20260504194025 11 0.0 0.0 0.00 0.00 0.00 83 1014.3
20260504193022 11 0.0 0.0 0.00 0.00 0.00 83 1014.4
20260504192020 11 0.0 0.0 0.00 0.00 0.00 83 1014.3
20260504191017 11 0.0 0.0 0.00 0.00 0.00 82 1014.4
20260504190014 11 203 0.0 3.2 0.00 0.00 0.00 81 1014.3
20260504185112 12 158 0.0 3.2 0.00 0.00 0.00 81 1014.4
20260504184109 12 197 0.0 3.2 0.00 0.00 0.00 80 1014.3
20260504183107 12 203 0.0 3.2 0.00 0.00 0.00 80 1014.4
20260504182104 12 179 1.6 3.2 0.00 0.00 0.00 79 1014.4
20260504181101 12 180 0.0 3.2 0.00 0.00 0.00 78 1014.4
20260504180059 13 203 0.0 3.2 0.00 0.00 0.00 78 1014.4
20260504175056 13 180 0.0 3.2 0.00 0.00 0.00 78 1014.5
20260504174054 13 183 1.6 3.2 0.00 0.00 0.00 78 1014.3
20260504173051 13 188 3.2 6.4 0.00 0.00 0.00 78 1014.4
20260504172048 13 188 1.6 6.4 0.00 0.00 0.00 78 1014.5
20260504171046 13 196 1.6 6.4 0.00 0.00 0.00 77 1014.3
20260504151015 16 186 1.6 6.4 0.00 0.00 0.00 70 1015.2
20260504150112 15 182 3.2 9.7 0.00 0.00 0.00 71 1015.3